Terug naar catalogus

FENGYUN 1C DEB

ActiefLEO
NORAD 36711·DEBRIS·🇨🇳 China

Gelanceerd May 10, 1999 vanaf Taiyuan Satellite Launch Center

Loading…

Volgende Passages (komende 24 uur)

TLE

VersSource: Space-Track

Epoch: Sep 13, 2026, 00:17 UTC

1 36711U 99025EAH 26256.01221043  .00006839  00000-0  18107-2 0  9992
2 36711 100.7919 353.7161 0095232 161.7047 198.7601 14.46538650682718

Volg FENGYUN 1C DEB in realtime met AllMySat

Download on the App Store